| time (UTC) | temp F | wind direction | speed MPH | gust MPH | rain 1hr in | rain 24hr in | rain mn in | humidity % | barometer mb |
| 20260903033436 | 85 | 226 | 4.0 | 8.0 | 0.00 | 0.00 | 0.00 | 70 | 1015.0 |
| 20260903033052 | 84 | 200 | 3.0 | 7.0 | 0.00 | 0.00 | 0.00 | 70 | 1013.1 |
| 20260903032935 | 85 | 212 | 4.0 | 7.0 | 0.00 | 0.00 | 0.00 | 70 | 1014.9 |
| 20260903032424 | 85 | 201 | 4.0 | 7.0 | 0.00 | 0.00 | 0.00 | 70 | 1015.0 |
| 20260903031932 | 85 | 203 | 4.0 | 7.0 | 0.00 | 0.00 | 0.00 | 69 | 1014.9 |
| 20260903031538 | 85 | 225 | 3.0 | 7.0 | 0.00 | 0.00 | 0.00 | 69 | 1013.1 |
| 20260903031444 | 85 | 254 | 4.0 | 7.0 | 0.00 | 0.00 | 0.00 | 69 | 1015.0 |
| 20260903030925 | 85 | 223 | 4.0 | 8.0 | 0.00 | 0.00 | 0.00 | 68 | 1014.9 |
| 20260903030436 | 86 | 237 | 3.0 | 10.0 | 0.00 | 0.00 | 0.00 | 68 | 1014.9 |
| 20260903030027 | 85 | 185 | 3.0 | 10.0 | 0.00 | 0.00 | 0.00 | 68 | 1013.1 |
| 20260903025924 | 86 | 231 | 4.0 | 10.0 | 0.00 | 0.00 | 0.00 | 68 | 1014.9 |
| 20260903025426 | 86 | 281 | 5.0 | 8.0 | 0.00 | 0.00 | 0.00 | 68 | 1014.9 |
| 20260903024938 | 86 | 252 | 4.0 | 10.0 | 0.00 | 0.00 | 0.00 | 68 | 1014.9 |
| 20260903024530 | 86 | 255 | 3.0 | 10.0 | 0.00 | 0.00 | 0.00 | 68 | 1013.1 |
| 20260903024428 | 86 | 238 | 4.0 | 10.0 | 0.00 | 0.00 | 0.00 | 68 | 1014.9 |
| 20260903023930 | 86 | 227 | 4.0 | 7.0 | 0.00 | 0.00 | 0.00 | 68 | 1014.9 |
| 20260903023422 | 86 | 223 | 4.0 | 9.0 | 0.00 | 0.00 | 0.00 | 68 | 1014.9 |
| 20260903023039 | 86 | 198 | 3.0 | 9.0 | 0.00 | 0.00 | 0.00 | 68 | 1013.0 |
| 20260903022934 | 86 | 165 | 3.0 | 9.0 | 0.00 | 0.00 | 0.00 | 68 | 1014.9 |
| 20260903022435 | 86 | 231 | 3.0 | 7.0 | 0.00 | 0.00 | 0.00 | 68 | 1014.8 |
| 20260903021927 | 87 | 182 | 3.0 | 6.0 | 0.00 | 0.00 | 0.00 | 67 | 1014.7 |
| 20260903021546 | 86 | 195 | 2.0 | 7.0 | 0.00 | 0.00 | 0.00 | 67 | 1012.9 |
| 20260903021457 | 87 | 212 | 3.0 | 7.0 | 0.00 | 0.00 | 0.00 | 67 | 1014.7 |
| 20260903020926 | 87 | 240 | 3.0 | 7.0 | 0.00 | 0.00 | 0.00 | 67 | 1014.7 |
| 20260903020434 | 87 | 187 | 3.0 | 6.0 | 0.00 | 0.00 | 0.00 | 67 | 1014.6 |
| 20260903020057 | 86 | 262 | 3.0 | 6.0 | 0.00 | 0.00 | 0.00 | 67 | 1012.7 |
| 20260903015934 | 87 | 229 | 4.0 | 6.0 | 0.00 | 0.00 | 0.00 | 67 | 1014.6 |
| 20260903015425 | 87 | 229 | 2.0 | 6.0 | 0.00 | 0.00 | 0.00 | 66 | 1014.6 |
| 20260903014937 | 87 | 214 | 2.0 | 6.0 | 0.00 | 0.00 | 0.00 | 66 | 1014.6 |
| 20260903014611 | 87 | 287 | 1.0 | 6.0 | 0.00 | 0.00 | 0.00 | 66 | 1012.6 |
| 20260903014437 | 87 | 223 | 2.0 | 6.0 | 0.00 | 0.00 | 0.00 | 66 | 1014.5 |
| 20260903013927 | 87 | 235 | 2.0 | 6.0 | 0.00 | 0.00 | 0.00 | 65 | 1014.5 |
| 20260903013439 | 87 | 227 | 3.0 | 6.0 | 0.00 | 0.00 | 0.00 | 65 | 1014.4 |
| 20260903013049 | 87 | 250 | 2.0 | 6.0 | 0.00 | 0.00 | 0.00 | 65 | 1012.5 |
| 20260903012950 | 87 | 221 | 2.0 | 6.0 | 0.00 | 0.00 | 0.00 | 65 | 1014.3 |
| 20260903012432 | 88 | 234 | 2.0 | 6.0 | 0.00 | 0.00 | 0.00 | 65 | 1014.4 |
| 20260903011944 | 88 | 262 | 3.0 | 5.0 | 0.00 | 0.00 | 0.00 | 64 | 1014.4 |
| 20260903011556 | 88 | 255 | 2.0 | 6.0 | 0.00 | 0.00 | 0.00 | 64 | 1012.4 |
| 20260903011424 | 88 | 203 | 3.0 | 6.0 | 0.00 | 0.00 | 0.00 | 64 | 1014.3 |
| 20260903010955 | 88 | 224 | 3.0 | 6.0 | 0.00 | 0.00 | 0.00 | 64 | 1014.3 |
| 20260903010425 | 88 | 207 | 3.0 | 7.0 | 0.00 | 0.00 | 0.00 | 63 | 1014.2 |
| 20260903010040 | 88 | 243 | 2.0 | 7.0 | 0.00 | 0.00 | 0.00 | 63 | 1012.3 |
| 20260903005925 | 89 | 267 | 3.0 | 7.0 | 0.00 | 0.00 | 0.00 | 62 | 1014.1 |
| 20260903005505 | 89 | 255 | 3.0 | 6.0 | 0.00 | 0.00 | 0.00 | 62 | 1014.2 |
| 20260903004927 | 89 | 252 | 2.0 | 5.0 | 0.00 | 0.00 | 0.00 | 62 | 1014.2 |
| 20260903004535 | 89 | 259 | 2.0 | 5.0 | 0.00 | 0.00 | 0.00 | 62 | 1012.3 |
| 20260903004433 | 89 | 266 | 2.0 | 5.0 | 0.00 | 0.00 | 0.00 | 62 | 1014.2 |
| 20260903003940 | 89 | 214 | 2.0 | 5.0 | 0.00 | 0.00 | 0.00 | 61 | 1014.1 |
| 20260903003423 | 90 | 203 | 2.0 | 5.0 | 0.00 | 0.00 | 0.00 | 61 | 1014.0 |
| 20260903003011 | 89 | 224 | 1.0 | 4.0 | 0.00 | 0.00 | 0.00 | 60 | 1012.0 |
| 20260903002934 | 90 | 252 | 1.0 | 4.0 | 0.00 | 0.00 | 0.00 | 60 | 1014.0 |
| 20260903002442 | 90 | 206 | 2.0 | 7.0 | 0.00 | 0.00 | 0.00 | 59 | 1013.9 |
| 20260903001933 | 90 | 230 | 1.0 | 4.0 | 0.00 | 0.00 | 0.00 | 59 | 1013.9 |
| 20260903001602 | 90 | 251 | 1.0 | 6.0 | 0.00 | 0.00 | 0.00 | 59 | 1012.0 |
| 20260903001505 | 91 | 248 | 1.0 | 6.0 | 0.00 | 0.00 | 0.00 | 58 | 1013.9 |
| 20260903000925 | 91 | 264 | 2.0 | 6.0 | 0.00 | 0.00 | 0.00 | 58 | 1013.9 |
| 20260903000435 | 91 | 232 | 1.0 | 6.0 | 0.00 | 0.00 | 0.00 | 58 | 1013.9 |
| 20260903000049 | 91 | 238 | 0.0 | 6.0 | 0.00 | 0.00 | 0.00 | 57 | 1012.0 |
| 20260902235947 | 91 | 236 | 2.0 | 8.0 | 0.00 | 0.00 | 0.00 | 57 | 1014.0 |
| 20260902235448 | 92 | 185 | 2.0 | 8.0 | 0.00 | 0.00 | 0.00 | 57 | 1013.9 |
| 20260902234948 | 92 | 205 | 3.0 | 8.0 | 0.00 | 0.00 | 0.00 | 56 | 1014.0 |
| 20260902234515 | 91 | 179 | 3.0 | 10.0 | 0.00 | 0.00 | 0.00 | 56 | 1012.0 |
| 20260902234427 | 92 | 303 | 4.0 | 10.0 | 0.00 | 0.00 | 0.00 | 56 | 1013.9 |
| 20260902233935 | 92 | 205 | 3.0 | 8.0 | 0.00 | 0.00 | 0.00 | 56 | 1013.9 |
| 20260902233506 | 92 | 179 | 2.0 | 5.0 | 0.00 | 0.00 | 0.00 | 56 | 1013.9 |
| 20260902233101 | 92 | 216 | 1.0 | 6.0 | 0.00 | 0.00 | 0.00 | 55 | 1012.1 |
| 20260902232926 | 92 | 223 | 2.0 | 7.0 | 0.00 | 0.00 | 0.00 | 56 | 1014.0 |
| 20260902232458 | 92 | 219 | 2.0 | 7.0 | 0.00 | 0.00 | 0.00 | 55 | 1014.0 |
| 20260902231929 | 93 | 274 | 4.0 | 7.0 | 0.00 | 0.00 | 0.00 | 55 | 1013.9 |
| 20260902231548 | 92 | 157 | 2.0 | 7.0 | 0.00 | 0.00 | 0.00 | 55 | 1012.2 |
| 20260902231459 | 93 | 225 | 4.0 | 7.0 | 0.00 | 0.00 | 0.00 | 55 | 1014.0 |
| 20260902230947 | 93 | 253 | 3.0 | 7.0 | 0.00 | 0.00 | 0.00 | 54 | 1014.1 |
| 20260902230450 | 93 | 243 | 3.0 | 9.0 | 0.00 | 0.00 | 0.00 | 54 | 1014.1 |
| 20260902230011 | 93 | 230 | 4.0 | 9.0 | 0.00 | 0.00 | 0.00 | 53 | 1012.1 |
| 20260902225958 | 93 | 150 | 4.0 | 9.0 | 0.00 | 0.00 | 0.00 | 53 | 1014.1 |
| 20260902225447 | 93 | 179 | 4.0 | 8.0 | 0.00 | 0.00 | 0.00 | 53 | 1014.1 |
| 20260902224936 | 94 | 287 | 3.0 | 7.0 | 0.00 | 0.00 | 0.00 | 53 | 1014.2 |
| 20260902224545 | 93 | 226 | 3.0 | 8.0 | 0.00 | 0.00 | 0.00 | 53 | 1012.2 |
| 20260902224445 | 93 | 214 | 3.0 | 8.0 | 0.00 | 0.00 | 0.00 | 53 | 1014.1 |
| 20260902223925 | 94 | 232 | 4.0 | 8.0 | 0.00 | 0.00 | 0.00 | 52 | 1014.2 |
| 20260902223433 | 94 | 234 | 3.0 | 10.0 | 0.00 | 0.00 | 0.00 | 52 | 1014.2 |
| 20260902223020 | 93 | 225 | 4.0 | 10.0 | 0.00 | 0.00 | 0.00 | 53 | 1012.3 |
| 20260902222921 | 94 | 193 | 4.0 | 10.0 | 0.00 | 0.00 | 0.00 | 53 | 1014.2 |
| 20260902222424 | 94 | 274 | 3.0 | 6.0 | 0.00 | 0.00 | 0.00 | 52 | 1014.3 |
| 20260902221936 | 94 | 243 | 3.0 | 8.0 | 0.00 | 0.00 | 0.00 | 52 | 1014.3 |
| 20260902221526 | 93 | 224 | 2.0 | 8.0 | 0.00 | 0.00 | 0.00 | 52 | 1012.4 |
| 20260902221424 | 94 | 175 | 3.0 | 8.0 | 0.00 | 0.00 | 0.00 | 52 | 1014.3 |
| 20260902220927 | 94 | 87 | 2.0 | 10.0 | 0.00 | 0.00 | 0.00 | 51 | 1014.4 |
| 20260902220438 | 95 | 197 | 4.0 | 10.0 | 0.00 | 0.00 | 0.00 | 51 | 1014.4 |
| 20260902220035 | 94 | 201 | 4.0 | 10.0 | 0.00 | 0.00 | 0.00 | 51 | 1012.5 |
| 20260902215949 | 95 | 214 | 3.0 | 8.0 | 0.00 | 0.00 | 0.00 | 51 | 1014.4 |
| 20260902215430 | 95 | 174 | 2.0 | 12.0 | 0.00 | 0.00 | 0.00 | 51 | 1014.5 |
| 20260902214941 | 95 | 214 | 3.0 | 12.0 | 0.00 | 0.00 | 0.00 | 51 | 1014.6 |
| 20260902214542 | 94 | 237 | 6.0 | 12.0 | 0.00 | 0.00 | 0.00 | 51 | 1012.6 |
| 20260902214421 | 95 | 226 | 5.0 | 11.0 | 0.00 | 0.00 | 0.00 | 51 | 1014.6 |
| 20260902213940 | 96 | 181 | 4.0 | 10.0 | 0.00 | 0.00 | 0.00 | 49 | 1014.6 |
| 20260902213423 | 96 | 173 | 3.0 | 10.0 | 0.00 | 0.00 | 0.00 | 49 | 1014.7 |
| 20260902213030 | 95 | 208 | 4.0 | 10.0 | 0.00 | 0.00 | 0.00 | 50 | 1012.8 |
| 20260902212953 | 95 | 243 | 5.0 | 10.0 | 0.00 | 0.00 | 0.00 | 50 | 1014.7 |
| 20260902212439 | 95 | 266 | 4.0 | 12.0 | 0.00 | 0.00 | 0.00 | 50 | 1014.7 |
| 20260902211922 | 95 | 165 | 5.0 | 8.0 | 0.00 | 0.00 | 0.00 | 49 | 1014.8 |
| 20260902211516 | 94 | 188 | 3.0 | 10.0 | 0.00 | 0.00 | 0.00 | 50 | 1012.9 |
| 20260902211432 | 95 | 248 | 3.0 | 10.0 | 0.00 | 0.00 | 0.00 | 50 | 1014.8 |
| 20260902210941 | 96 | 234 | 6.0 | 10.0 | 0.00 | 0.00 | 0.00 | 49 | 1014.8 |
| 20260902210452 | 96 | 246 | 3.0 | 10.0 | 0.00 | 0.00 | 0.00 | 50 | 1014.8 |
| 20260902210054 | 95 | 224 | 1.0 | 10.0 | 0.00 | 0.00 | 0.00 | 51 | 1012.9 |
| 20260902205943 | 96 | 238 | 2.0 | 10.0 | 0.00 | 0.00 | 0.00 | 51 | 1014.8 |
| 20260902205423 | 95 | 251 | 4.0 | 10.0 | 0.00 | 0.00 | 0.00 | 50 | 1014.9 |
| 20260902204936 | 95 | 172 | 5.0 | 10.0 | 0.00 | 0.00 | 0.00 | 51 | 1015.1 |
| 20260902204548 | 94 | 155 | 4.0 | 10.0 | 0.00 | 0.00 | 0.00 | 49 | 1013.1 |
| 20260902204425 | 95 | 193 | 4.0 | 8.0 | 0.00 | 0.00 | 0.00 | 50 | 1015.0 |
| 20260902203934 | 95 | 202 | 4.0 | 10.0 | 0.00 | 0.00 | 0.00 | 50 | 1015.1 |
| 20260902203437 | 95 | 268 | 5.0 | 12.0 | 0.00 | 0.00 | 0.00 | 49 | 1015.1 |
| 20260902203013 | 94 | 250 | 5.0 | 12.0 | 0.00 | 0.00 | 0.00 | 49 | 1013.3 |
| 20260902202927 | 95 | 193 | 6.0 | 12.0 | 0.00 | 0.00 | 0.00 | 49 | 1015.2 |
| 20260902202440 | 94 | 281 | 4.0 | 12.0 | 0.00 | 0.00 | 0.00 | 50 | 1015.1 |
| 20260902201943 | 95 | 222 | 5.0 | 12.0 | 0.00 | 0.00 | 0.00 | 49 | 1015.2 |
| 20260902201525 | 94 | 204 | 1.0 | 10.0 | 0.00 | 0.00 | 0.00 | 51 | 1013.2 |
| 20260902201432 | 94 | 141 | 2.0 | 10.0 | 0.00 | 0.00 | 0.00 | 51 | 1015.2 |
| 20260902200929 | 94 | 221 | 6.0 | 13.0 | 0.00 | 0.00 | 0.00 | 51 | 1015.2 |
| 20260902200441 | 95 | 229 | 5.0 | 13.0 | 0.00 | 0.00 | 0.00 | 50 | 1015.3 |
| 20260902200034 | 96 | 174 | 4.0 | 12.0 | 0.00 | 0.00 | 0.00 | 49 | 1013.5 |
| 20260902195931 | 96 | 212 | 2.0 | 10.0 | 0.00 | 0.00 | 0.00 | 50 | 1015.4 |
| 20260902195503 | 95 | 207 | 6.0 | 11.0 | 0.00 | 0.00 | 0.00 | 50 | 1015.4 |
| 20260902194924 | 96 | 203 | 5.0 | 11.0 | 0.00 | 0.00 | 0.00 | 48 | 1015.5 |
| 20260902194517 | 96 | 174 | 3.0 | 9.0 | 0.00 | 0.00 | 0.00 | 49 | 1013.6 |
| 20260902194433 | 96 | 239 | 4.0 | 9.0 | 0.00 | 0.00 | 0.00 | 49 | 1015.5 |
| 20260902193944 | 96 | 233 | 4.0 | 8.0 | 0.00 | 0.00 | 0.00 | 49 | 1015.5 |
| 20260902193426 | 95 | 229 | 5.0 | 17.0 | 0.00 | 0.00 | 0.00 | 51 | 1015.5 |
| 20260902193023 | 94 | 189 | 5.0 | 17.0 | 0.00 | 0.00 | 0.00 | 51 | 1013.8 |
| 20260902192939 | 95 | 172 | 5.0 | 17.0 | 0.00 | 0.00 | 0.00 | 51 | 1015.8 |
| 20260902192448 | 96 | 251 | 3.0 | 10.0 | 0.00 | 0.00 | 0.00 | 49 | 1015.9 |
| 20260902191931 | 95 | 136 | 4.0 | 10.0 | 0.00 | 0.00 | 0.00 | 51 | 1015.8 |
| 20260902191532 | 94 | 182 | 4.0 | 8.0 | 0.00 | 0.00 | 0.00 | 53 | 1014.0 |
| 20260902191443 | 94 | 237 | 4.0 | 8.0 | 0.00 | 0.00 | 0.00 | 52 | 1015.9 |
| 20260902190923 | 96 | 160 | 3.0 | 12.0 | 0.00 | 0.00 | 0.00 | 51 | 1016.1 |
| 20260902190435 | 95 | 269 | 4.0 | 12.0 | 0.00 | 0.00 | 0.00 | 52 | 1016.2 |
| 20260902190039 | 94 | 266 | 6.0 | 11.0 | 0.00 | 0.00 | 0.00 | 52 | 1014.2 |
| 20260902185946 | 95 | 213 | 6.0 | 11.0 | 0.00 | 0.00 | 0.00 | 51 | 1016.2 |
| 20260902185427 | 95 | 268 | 4.0 | 15.0 | 0.00 | 0.00 | 0.00 | 52 | 1016.2 |
| 20260902184939 | 94 | 185 | 3.0 | 15.0 | 0.00 | 0.00 | 0.00 | 54 | 1016.3 |
| 20260902184549 | 93 | 212 | 6.0 | 15.0 | 0.00 | 0.00 | 0.00 | 54 | 1014.4 |
| 20260902184427 | 94 | 190 | 4.0 | 13.0 | 0.00 | 0.00 | 0.00 | 53 | 1016.4 |
| 20260902183955 | 94 | 266 | 6.0 | 13.0 | 0.00 | 0.00 | 0.00 | 53 | 1016.4 |
| 20260902183436 | 94 | 203 | 3.0 | 10.0 | 0.00 | 0.00 | 0.00 | 54 | 1016.5 |
| 20260902183011 | 93 | 202 | 5.0 | 11.0 | 0.00 | 0.00 | 0.00 | 55 | 1014.7 |
| 20260902182946 | 93 | 169 | 5.0 | 11.0 | 0.00 | 0.00 | 0.00 | 55 | 1016.6 |
| 20260902182436 | 92 | 237 | 5.0 | 13.0 | 0.00 | 0.00 | 0.00 | 57 | 1016.5 |
| 20260902181948 | 91 | 171 | 8.0 | 13.0 | 0.00 | 0.00 | 0.00 | 57 | 1016.6 |
| 20260902181602 | 92 | 231 | 2.0 | 9.0 | 0.00 | 0.00 | 0.00 | 56 | 1014.8 |
| 20260902181429 | 93 | 171 | 4.0 | 9.0 | 0.00 | 0.00 | 0.00 | 56 | 1016.8 |
| 20260902180940 | 93 | 207 | 5.0 | 11.0 | 0.00 | 0.00 | 0.00 | 56 | 1016.8 |
| 20260902180451 | 92 | 239 | 5.0 | 11.0 | 0.00 | 0.00 | 0.00 | 58 | 1016.8 |
| 20260902180006 | 92 | 249 | 4.0 | 12.0 | 0.00 | 0.00 | 0.00 | 57 | 1015.1 |
| 20260902175932 | 93 | 267 | 5.0 | 12.0 | 0.00 | 0.00 | 0.00 | 57 | 1017.0 |
| 20260902175443 | 93 | 273 | 5.0 | 12.0 | 0.00 | 0.00 | 0.00 | 56 | 1017.0 |
| 20260902174934 | 94 | 269 | 3.0 | 8.0 | 0.00 | 0.00 | 0.00 | 57 | 1017.1 |
| 20260902174556 | 93 | 235 | 2.0 | 8.0 | 0.00 | 0.00 | 0.00 | 56 | 1015.3 |
| 20260902174436 | 93 | 260 | 3.0 | 8.0 | 0.00 | 0.00 | 0.00 | 56 | 1017.3 |
| 20260902173947 | 93 | 176 | 5.0 | 9.0 | 0.00 | 0.00 | 0.00 | 56 | 1017.3 |
| 20260902173439 | 94 | 278 | 6.0 | 10.0 | 0.00 | 0.00 | 0.00 | 55 | 1017.3 |
| 20260902173042 | 93 | 240 | 2.0 | 10.0 | 0.00 | 0.00 | 0.00 | 57 | 1015.5 |
| 20260902172944 | 94 | 176 | 4.0 | 10.0 | 0.00 | 0.00 | 0.00 | 56 | 1017.4 |
| 20260902172426 | 93 | 231 | 3.0 | 10.0 | 0.00 | 0.00 | 0.00 | 57 | 1017.5 |
| 20260902171944 | 93 | 259 | 4.0 | 13.0 | 0.00 | 0.00 | 0.00 | 57 | 1017.5 |
| 20260902171507 | 92 | 201 | 4.0 | 13.0 | 0.00 | 0.00 | 0.00 | 58 | 1015.7 |
| 20260902171444 | 92 | 204 | 4.0 | 13.0 | 0.00 | 0.00 | 0.00 | 59 | 1017.5 |
| 20260902170935 | 92 | 219 | 4.0 | 12.0 | 0.00 | 0.00 | 0.00 | 58 | 1017.6 |
| 20260902170447 | 91 | 224 | 6.0 | 14.0 | 0.00 | 0.00 | 0.00 | 59 | 1017.7 |
| 20260902170058 | 91 | 243 | 5.0 | 14.0 | 0.00 | 0.00 | 0.00 | 58 | 1015.8 |
| 20260902165928 | 92 | 226 | 4.0 | 14.0 | 0.00 | 0.00 | 0.00 | 58 | 1017.8 |
| 20260902165440 | 92 | 194 | 6.0 | 13.0 | 0.00 | 0.00 | 0.00 | 58 | 1017.7 |
| 20260902164923 | 92 | 203 | 6.0 | 11.0 | 0.00 | 0.00 | 0.00 | 57 | 1017.9 |
| 20260902164504 | 92 | 245 | 4.0 | 9.0 | 0.00 | 0.00 | 0.00 | 57 | 1016.0 |
| 20260902164432 | 93 | 180 | 3.0 | 9.0 | 0.00 | 0.00 | 0.00 | 57 | 1017.9 |
| 20260902163938 | 92 | 248 | 2.0 | 10.0 | 0.00 | 0.00 | 0.00 | 58 | 1017.9 |
| 20260902163449 | 92 | 236 | 1.0 | 11.0 | 0.00 | 0.00 | 0.00 | 59 | 1018.0 |
| 20260902163056 | 91 | 176 | 4.0 | 11.0 | 0.00 | 0.00 | 0.00 | 59 | 1016.1 |
| 20260902162929 | 91 | 184 | 3.0 | 11.0 | 0.00 | 0.00 | 0.00 | 60 | 1018.0 |
| 20260902162437 | 92 | 226 | 4.0 | 8.0 | 0.00 | 0.00 | 0.00 | 59 | 1018.0 |
| 20260902161928 | 92 | 195 | 4.0 | 8.0 | 0.00 | 0.00 | 0.00 | 59 | 1018.1 |
| 20260902161552 | 91 | 276 | 4.0 | 7.0 | 0.00 | 0.00 | 0.00 | 59 | 1016.2 |
| 20260902161425 | 92 | 229 | 2.0 | 6.0 | 0.00 | 0.00 | 0.00 | 60 | 1018.1 |
| 20260902160936 | 92 | 224 | 3.0 | 5.0 | 0.00 | 0.00 | 0.00 | 59 | 1018.1 |
| 20260902160447 | 92 | 243 | 1.0 | 6.0 | 0.00 | 0.00 | 0.00 | 59 | 1018.2 |
| 20260902160058 | 90 | 252 | 1.0 | 8.0 | 0.00 | 0.00 | 0.00 | 62 | 1016.3 |
| 20260902155956 | 91 | 221 | 3.0 | 8.0 | 0.00 | 0.00 | 0.00 | 61 | 1018.1 |
| 20260902155436 | 90 | 266 | 4.0 | 8.0 | 0.00 | 0.00 | 0.00 | 61 | 1018.1 |
| 20260902154927 | 90 | 217 | 4.0 | 8.0 | 0.00 | 0.00 | 0.00 | 60 | 1018.1 |
| 20260902154549 | 90 | 191 | 2.0 | 7.0 | 0.00 | 0.00 | 0.00 | 61 | 1016.2 |
| 20260902154439 | 90 | 154 | 3.0 | 7.0 | 0.00 | 0.00 | 0.00 | 61 | 1018.0 |
| 20260902153947 | 90 | 214 | 3.0 | 7.0 | 0.00 | 0.00 | 0.00 | 60 | 1018.0 |
| 20260902153430 | 90 | 236 | 1.0 | 4.0 | 0.00 | 0.00 | 0.00 | 63 | 1018.0 |
| 20260902153031 | 88 | 196 | 1.0 | 5.0 | 0.00 | 0.00 | 0.00 | 64 | 1016.1 |
| 20260902153002 | 89 | 257 | 1.0 | 5.0 | 0.00 | 0.00 | 0.00 | 63 | 1018.0 |
| 20260902152430 | 88 | 253 | 2.0 | 5.0 | 0.00 | 0.00 | 0.00 | 64 | 1018.0 |
| 20260902151933 | 88 | 262 | 3.0 | 4.0 | 0.00 | 0.00 | 0.00 | 64 | 1017.9 |
| 20260902151516 | 88 | 293 | 2.0 | 4.0 | 0.00 | 0.00 | 0.00 | 64 | 1016.0 |
| 20260902151422 | 88 | 256 | 2.0 | 4.0 | 0.00 | 0.00 | 0.00 | 65 | 1017.9 |
| 20260902150923 | 88 | 204 | 1.0 | 3.0 | 0.00 | 0.00 | 0.00 | 64 | 1017.9 |
| 20260902150500 | 87 | 226 | 1.0 | 3.0 | 0.00 | 0.00 | 0.00 | 65 | 1017.9 |
| 20260902150106 | 86 | 278 | 1.0 | 3.0 | 0.00 | 0.00 | 0.00 | 65 | 1016.2 |
| 20260902145949 | 87 | 205 | 1.0 | 3.0 | 0.00 | 0.00 | 0.00 | 65 | 1018.0 |
| 20260902145449 | 86 | 221 | 1.0 | 5.0 | 0.00 | 0.00 | 0.00 | 65 | 1018.1 |
| 20260902144940 | 86 | 219 | 2.0 | 5.0 | 0.00 | 0.00 | 0.00 | 65 | 1018.1 |
| 20260902144535 | 86 | 200 | 1.0 | 4.0 | 0.00 | 0.00 | 0.00 | 66 | 1016.2 |
| 20260902144427 | 86 | 198 | 1.0 | 4.0 | 0.00 | 0.00 | 0.00 | 67 | 1018.0 |
| 20260902143939 | 85 | 238 | 1.0 | 4.0 | 0.00 | 0.00 | 0.00 | 68 | 1018.0 |
| 20260902143451 | 85 | 192 | 2.0 | 3.0 | 0.00 | 0.00 | 0.00 | 67 | 1018.0 |
| 20260902143013 | 84 | 247 | 0.0 | 3.0 | 0.00 | 0.00 | 0.00 | 69 | 1016.1 |
| 20260902142931 | 85 | 219 | 0.0 | 3.0 | 0.00 | 0.00 | 0.00 | 69 | 1018.0 |
| 20260902142441 | 84 | 263 | 1.0 | 3.0 | 0.00 | 0.00 | 0.00 | 69 | 1018.0 |
| 20260902141942 | 84 | 277 | 1.0 | 4.0 | 0.00 | 0.00 | 0.00 | 71 | 1018.0 |
| 20260902141611 | 83 | 254 | 0.0 | 4.0 | 0.00 | 0.00 | 0.00 | 72 | 1016.1 |
| 20260902141442 | 83 | 250 | 1.0 | 4.0 | 0.00 | 0.00 | 0.00 | 72 | 1018.0 |
| 20260902140943 | 83 | 228 | 1.0 | 2.0 | 0.00 | 0.00 | 0.00 | 73 | 1018.1 |
| 20260902140429 | 82 | 257 | 1.0 | 1.0 | 0.00 | 0.00 | 0.00 | 74 | 1018.0 |
| 20260902140036 | 82 | 269 | 0.0 | 1.0 | 0.00 | 0.00 | 0.00 | 74 | 1016.1 |
| 20260902135940 | 82 | 246 | 0.0 | 1.0 | 0.00 | 0.00 | 0.00 | 75 | 1017.9 |
| 20260902135428 | 82 | 269 | 1.0 | 1.0 | 0.00 | 0.00 | 0.00 | 75 | 1018.0 |
| 20260902134930 | 81 | 269 | 1.0 | 1.0 | 0.00 | 0.00 | 0.00 | 75 | 1018.0 |
| 20260902134515 | 80 | 285 | 0.0 | 1.0 | 0.00 | 0.00 | 0.00 | 76 | 1016.1 |
| 20260902134442 | 81 | 285 | 0.0 | 1.0 | 0.00 | 0.00 | 0.00 | 76 | 1017.9 |
| 20260902133921 | 80 | 272 | 0.0 | 0.0 | 0.00 | 0.00 | 0.00 | 77 | 1018.0 |
| 20260902133503 | 80 | 274 | 0.0 | 0.0 | 0.00 | 0.00 | 0.00 | 78 | 1018.0 |
| 20260902133111 | 79 | 274 | 0.0 | 0.0 | 0.00 | 0.00 | 0.00 | 78 | 1016.3 |
| 20260902132923 | 80 | 274 | 0.0 | 0.0 | 0.00 | 0.00 | 0.00 | 78 | 1018.1 |
| 20260902132434 | 79 | 274 | 0.0 | 1.0 | 0.00 | 0.00 | 0.00 | 79 | 1017.9 |
| 20260902131947 | 79 | 276 | 0.0 | 1.0 | 0.00 | 0.00 | 0.00 | 79 | 1017.9 |
| 20260902131551 | 78 | 278 | 0.0 | 1.0 | 0.00 | 0.00 | 0.00 | 80 | 1016.1 |
| 20260902131427 | 78 | 278 | 0.0 | 1.0 | 0.00 | 0.00 | 0.00 | 79 | 1017.9 |
| 20260902130939 | 78 | 278 | 0.0 | 0.0 | 0.00 | 0.00 | 0.00 | 79 | 1017.9 |
| 20260902130450 | 78 | 281 | 0.0 | 0.0 | 0.00 | 0.00 | 0.00 | 79 | 1017.9 |
| 20260902130100 | 77 | 281 | 0.0 | 0.0 | 0.00 | 0.00 | 0.00 | 80 | 1016.0 |
| 20260902125931 | 78 | 286 | 0.0 | 0.0 | 0.00 | 0.00 | 0.00 | 80 | 1017.8 |
| 20260902125422 | 78 | 286 | 0.0 | 0.0 | 0.00 | 0.00 | 0.00 | 80 | 1017.8 |
| 20260902124925 | 77 | 286 | 0.0 | 0.0 | 0.00 | 0.00 | 0.00 | 80 | 1017.8 |
| 20260902124503 | 77 | 287 | 0.0 | 0.0 | 0.00 | 0.00 | 0.00 | 80 | 1015.9 |
| 20260902124452 | 77 | 287 | 0.0 | 0.0 | 0.00 | 0.00 | 0.00 | 80 | 1017.7 |
| 20260902123923 | 77 | 288 | 0.0 | 0.0 | 0.00 | 0.00 | 0.00 | 80 | 1017.6 |
| 20260902123435 | 77 | 288 | 0.0 | 0.0 | 0.00 | 0.00 | 0.00 | 80 | 1017.5 |
| 20260902123056 | 76 | 288 | 0.0 | 0.0 | 0.00 | 0.00 | 0.00 | 81 | 1015.7 |
| 20260902122936 | 77 | 288 | 0.0 | 0.0 | 0.00 | 0.00 | 0.00 | 81 | 1017.5 |
| 20260902122421 | 77 | 288 | 0.0 | 0.0 | 0.00 | 0.00 | 0.00 | 81 | 1017.5 |
| 20260902121933 | 77 | 288 | 0.0 | 0.0 | 0.00 | 0.00 | 0.00 | 81 | 1017.5 |
| 20260902121541 | 76 | 288 | 0.0 | 1.0 | 0.00 | 0.00 | 0.00 | 81 | 1015.7 |
| 20260902121444 | 77 | 288 | 0.0 | 1.0 | 0.00 | 0.00 | 0.00 | 81 | 1017.5 |
| 20260902120925 | 77 | 259 | 1.0 | 1.0 | 0.00 | 0.00 | 0.00 | 81 | 1017.4 |
| 20260902120457 | 77 | 266 | 0.0 | 1.0 | 0.00 | 0.00 | 0.00 | 81 | 1017.3 |
| 20260902120021 | 76 | 268 | 0.0 | 1.0 | 0.00 | 0.00 | 0.00 | 81 | 1015.4 |
| 20260902115925 | 77 | 268 | 0.0 | 1.0 | 0.00 | 0.00 | 0.00 | 81 | 1017.3 |
| 20260902115427 | 77 | 268 | 0.0 | 1.0 | 0.00 | 0.00 | 0.00 | 81 | 1017.2 |
| 20260902114939 | 77 | 266 | 0.0 | 1.0 | 0.00 | 0.00 | 0.00 | 81 | 1017.2 |
| 20260902114528 | 76 | 258 | 1.0 | 1.0 | 0.00 | 0.00 | 0.00 | 81 | 1015.4 |
| 20260902114429 | 77 | 257 | 1.0 | 1.0 | 0.00 | 0.00 | 0.00 | 81 | 1017.1 |
| 20260902114000 | 76 | 258 | 0.0 | 1.0 | 0.00 | 0.00 | 0.00 | 82 | 1017.1 |
| 20260902113422 | 77 | 257 | 0.0 | 1.0 | 0.00 | 0.00 | 0.00 | 82 | 1017.1 |
| 20260902113018 | 76 | 253 | 0.0 | 1.0 | 0.00 | 0.00 | 0.00 | 82 | 1015.2 |
| 20260902112928 | 76 | 253 | 1.0 | 1.0 | 0.00 | 0.00 | 0.00 | 82 | 1017.0 |
| 20260902112440 | 76 | 253 | 1.0 | 1.0 | 0.00 | 0.00 | 0.00 | 82 | 1016.9 |
| 20260902112011 | 77 | 253 | 1.0 | 1.0 | 0.00 | 0.00 | 0.00 | 81 | 1016.9 |
| 20260902111501 | 76 | 253 | 0.0 | 1.0 | 0.00 | 0.00 | 0.00 | 81 | 1015.1 |
| 20260902111449 | 77 | 252 | 0.0 | 1.0 | 0.00 | 0.00 | 0.00 | 81 | 1017.0 |
| 20260902110940 | 77 | 253 | 0.0 | 1.0 | 0.00 | 0.00 | 0.00 | 80 | 1017.0 |
| 20260902110105 | 77 | 253 | 0.0 | 1.0 | 0.00 | 0.00 | 0.00 | 79 | 1015.0 |
| 20260902105943 | 78 | 253 | 0.0 | 1.0 | 0.00 | 0.00 | 0.00 | 79 | 1016.9 |
| 20260902105429 | 78 | 253 | 0.0 | 1.0 | 0.00 | 0.00 | 0.00 | 79 | 1016.9 |
| 20260902104943 | 78 | 246 | 0.0 | 1.0 | 0.00 | 0.00 | 0.00 | 79 | 1016.9 |
| 20260902104512 | 77 | 246 | 0.0 | 2.0 | 0.00 | 0.00 | 0.00 | 79 | 1015.0 |
| 20260902104422 | 78 | 246 | 1.0 | 2.0 | 0.00 | 0.00 | 0.00 | 78 | 1016.8 |
| 20260902103932 | 78 | 246 | 1.0 | 2.0 | 0.00 | 0.00 | 0.00 | 78 | 1016.8 |
| 20260902103424 | 78 | 245 | 1.0 | 3.0 | 0.00 | 0.00 | 0.00 | 78 | 1016.7 |
| 20260902103039 | 78 | 247 | 1.0 | 3.0 | 0.00 | 0.00 | 0.00 | 78 | 1014.9 |
| 20260902102935 | 78 | 252 | 2.0 | 3.0 | 0.00 | 0.00 | 0.00 | 78 | 1016.7 |
| 20260902102437 | 79 | 245 | 2.0 | 3.0 | 0.00 | 0.00 | 0.00 | 77 | 1016.7 |
| 20260902101929 | 79 | 240 | 2.0 | 4.0 | 0.00 | 0.00 | 0.00 | 77 | 1016.8 |
| 20260902101546 | 78 | 242 | 2.0 | 4.0 | 0.00 | 0.00 | 0.00 | 77 | 1015.0 |
| 20260902101455 | 79 | 248 | 3.0 | 4.0 | 0.00 | 0.00 | 0.00 | 77 | 1016.8 |
| 20260902100941 | 79 | 241 | 3.0 | 4.0 | 0.00 | 0.00 | 0.00 | 77 | 1016.8 |
| 20260902100422 | 79 | 243 | 3.0 | 4.0 | 0.00 | 0.00 | 0.00 | 77 | 1016.7 |
| 20260902100005 | 78 | 240 | 3.0 | 5.0 | 0.00 | 0.00 | 0.00 | 77 | 1014.8 |
| 20260902095931 | 79 | 240 | 3.0 | 5.0 | 0.00 | 0.00 | 0.00 | 77 | 1016.7 |
| 20260902095425 | 79 | 243 | 4.0 | 5.0 | 0.00 | 0.00 | 0.00 | 76 | 1016.7 |
| 20260902094925 | 79 | 233 | 4.0 | 5.0 | 0.00 | 0.00 | 0.00 | 76 | 1016.6 |
| 20260902094511 | 79 | 238 | 3.0 | 5.0 | 0.00 | 0.00 | 0.00 | 76 | 1014.7 |
| 20260902094434 | 79 | 239 | 4.0 | 5.0 | 0.00 | 0.00 | 0.00 | 76 | 1016.6 |
| 20260902093926 | 80 | 238 | 4.0 | 6.0 | 0.00 | 0.00 | 0.00 | 75 | 1016.6 |
| 20260902093437 | 80 | 240 | 4.0 | 6.0 | 0.00 | 0.00 | 0.00 | 75 | 1016.5 |
| 20260902093106 | 79 | 238 | 4.0 | 6.0 | 0.00 | 0.00 | 0.00 | 75 | 1014.6 |
| 20260902092939 | 80 | 239 | 4.0 | 6.0 | 0.00 | 0.00 | 0.00 | 75 | 1016.4 |
| 20260902092429 | 80 | 242 | 4.0 | 6.0 | 0.00 | 0.00 | 0.00 | 75 | 1016.5 |
| 20260902091941 | 80 | 246 | 4.0 | 6.0 | 0.00 | 0.00 | 0.00 | 74 | 1016.4 |
| 20260902091504 | 80 | 239 | 3.0 | 6.0 | 0.00 | 0.00 | 0.00 | 74 | 1014.5 |
| 20260902091421 | 81 | 241 | 4.0 | 6.0 | 0.00 | 0.00 | 0.00 | 74 | 1016.4 |
| 20260902090932 | 81 | 238 | 4.0 | 7.0 | 0.00 | 0.00 | 0.00 | 73 | 1016.5 |
| 20260902090435 | 81 | 240 | 5.0 | 7.0 | 0.00 | 0.00 | 0.00 | 73 | 1016.5 |
| 20260902090010 | 80 | 242 | 4.0 | 7.0 | 0.00 | 0.00 | 0.00 | 74 | 1014.7 |
| 20260902085925 | 81 | 239 | 4.0 | 6.0 | 0.00 | 0.00 | 0.00 | 74 | 1016.5 |
| 20260902085430 | 81 | 240 | 4.0 | 6.0 | 0.00 | 0.00 | 0.00 | 74 | 1016.5 |
| 20260902084933 | 81 | 239 | 4.0 | 5.0 | 0.00 | 0.00 | 0.00 | 74 | 1016.4 |
| 20260902084516 | 80 | 240 | 3.0 | 4.0 | 0.00 | 0.00 | 0.00 | 74 | 1014.5 |
| 20260902084422 | 81 | 240 | 4.0 | 4.0 | 0.00 | 0.00 | 0.00 | 74 | 1016.4 |
| 20260902083931 | 81 | 241 | 3.0 | 4.0 | 0.00 | 0.00 | 0.00 | 74 | 1016.4 |
| 20260902083442 | 81 | 241 | 3.0 | 5.0 | 0.00 | 0.00 | 0.00 | 74 | 1016.3 |
| 20260902083043 | 80 | 240 | 3.0 | 5.0 | 0.00 | 0.00 | 0.00 | 74 | 1014.5 |
| 20260902082923 | 81 | 241 | 3.0 | 5.0 | 0.00 | 0.00 | 0.00 | 74 | 1016.4 |
| 20260902082504 | 80 | 240 | 4.0 | 4.0 | 0.00 | 0.00 | 0.00 | 75 | 1016.3 |
| 20260902081926 | 80 | 241 | 4.0 | 4.0 | 0.00 | 0.00 | 0.00 | 75 | 1016.3 |
| 20260902081534 | 80 | 242 | 2.0 | 3.0 | 0.00 | 0.00 | 0.00 | 75 | 1014.4 |
| 20260902081456 | 80 | 242 | 3.0 | 3.0 | 0.00 | 0.00 | 0.00 | 75 | 1016.3 |
| 20260902080924 | 80 | 243 | 3.0 | 3.0 | 0.00 | 0.00 | 0.00 | 75 | 1016.3 |
| 20260902080435 | 80 | 243 | 3.0 | 3.0 | 0.00 | 0.00 | 0.00 | 75 | 1016.3 |
| 20260902080112 | 80 | 239 | 3.0 | 3.0 | 0.00 | 0.00 | 0.00 | 75 | 1014.5 |
| 20260902075935 | 80 | 239 | 3.0 | 3.0 | 0.00 | 0.00 | 0.00 | 75 | 1016.3 |
| 20260902075425 | 80 | 236 | 3.0 | 3.0 | 0.00 | 0.00 | 0.00 | 75 | 1016.3 |
| 20260902074924 | 80 | 234 | 2.0 | 3.0 | 0.00 | 0.00 | 0.00 | 75 | 1016.3 |
| 20260902074502 | 80 | 238 | 2.0 | 3.0 | 0.00 | 0.00 | 0.00 | 75 | 1014.4 |
| 20260902074434 | 81 | 238 | 3.0 | 3.0 | 0.00 | 0.00 | 0.00 | 75 | 1016.3 |
| 20260902073924 | 81 | 242 | 3.0 | 3.0 | 0.00 | 0.00 | 0.00 | 75 | 1016.4 |
| 20260902073426 | 81 | 248 | 3.0 | 3.0 | 0.00 | 0.00 | 0.00 | 75 | 1016.4 |
| 20260902073010 | 80 | 242 | 2.0 | 4.0 | 0.00 | 0.00 | 0.00 | 75 | 1014.5 |
| 20260902072939 | 81 | 242 | 2.0 | 4.0 | 0.00 | 0.00 | 0.00 | 75 | 1016.4 |
| 20260902072428 | 81 | 241 | 3.0 | 4.0 | 0.00 | 0.00 | 0.00 | 74 | 1016.4 |
| 20260902071938 | 81 | 242 | 3.0 | 4.0 | 0.00 | 0.00 | 0.00 | 74 | 1016.5 |
| 20260902071615 | 81 | 243 | 2.0 | 4.0 | 0.00 | 0.00 | 0.00 | 74 | 1014.7 |
| 20260902071440 | 81 | 243 | 3.0 | 4.0 | 0.00 | 0.00 | 0.00 | 74 | 1016.6 |
| 20260902070931 | 81 | 243 | 3.0 | 5.0 | 0.00 | 0.00 | 0.00 | 74 | 1016.5 |
| 20260902070443 | 81 | 247 | 4.0 | 5.0 | 0.00 | 0.00 | 0.00 | 73 | 1016.5 |
| 20260902070006 | 81 | 239 | 3.0 | 5.0 | 0.00 | 0.00 | 0.00 | 73 | 1014.7 |
| 20260902065924 | 82 | 239 | 4.0 | 5.0 | 0.00 | 0.00 | 0.00 | 73 | 1016.5 |
| 20260902065454 | 82 | 223 | 4.0 | 5.0 | 0.00 | 0.00 | 0.00 | 73 | 1016.5 |
| 20260902064923 | 82 | 238 | 4.0 | 6.0 | 0.00 | 0.00 | 0.00 | 73 | 1016.5 |
| 20260902064530 | 82 | 233 | 3.0 | 6.0 | 0.00 | 0.00 | 0.00 | 72 | 1014.6 |
| 20260902064433 | 82 | 238 | 3.0 | 6.0 | 0.00 | 0.00 | 0.00 | 72 | 1016.5 |
| 20260902063935 | 82 | 236 | 4.0 | 6.0 | 0.00 | 0.00 | 0.00 | 72 | 1016.5 |
| 20260902063442 | 82 | 239 | 5.0 | 6.0 | 0.00 | 0.00 | 0.00 | 72 | 1016.5 |
| 20260902063024 | 82 | 239 | 4.0 | 5.0 | 0.00 | 0.00 | 0.00 | 72 | 1014.6 |
| 20260902062931 | 82 | 240 | 4.0 | 5.0 | 0.00 | 0.00 | 0.00 | 72 | 1016.5 |
| 20260902062443 | 83 | 240 | 4.0 | 5.0 | 0.00 | 0.00 | 0.00 | 71 | 1016.4 |
| 20260902061922 | 83 | 240 | 4.0 | 5.0 | 0.00 | 0.00 | 0.00 | 71 | 1016.4 |
| 20260902061612 | 82 | 239 | 4.0 | 5.0 | 0.00 | 0.00 | 0.00 | 71 | 1014.5 |
| 20260902061503 | 83 | 237 | 4.0 | 9.0 | 0.00 | 0.00 | 0.00 | 71 | 1016.4 |
| 20260902060921 | 83 | 234 | 4.0 | 9.0 | 0.00 | 0.00 | 0.00 | 70 | 1016.4 |
| 20260902060433 | 83 | 239 | 4.0 | 7.0 | 0.00 | 0.00 | 0.00 | 70 | 1016.4 |
| 20260902060049 | 83 | 231 | 4.0 | 7.0 | 0.00 | 0.00 | 0.00 | 70 | 1014.5 |
| 20260902055932 | 83 | 239 | 5.0 | 7.0 | 0.00 | 0.00 | 0.00 | 70 | 1016.4 |
| 20260902055424 | 83 | 234 | 4.0 | 7.0 | 0.00 | 0.00 | 0.00 | 69 | 1016.3 |
| 20260902054936 | 84 | 237 | 4.0 | 7.0 | 0.00 | 0.00 | 0.00 | 69 | 1016.3 |
| 20260902054600 | 83 | 240 | 4.0 | 8.0 | 0.00 | 0.00 | 0.00 | 69 | 1014.3 |
| 20260902054439 | 84 | 194 | 5.0 | 8.0 | 0.00 | 0.00 | 0.00 | 69 | 1016.3 |
| 20260902053928 | 83 | 239 | 5.0 | 8.0 | 0.00 | 0.00 | 0.00 | 69 | 1016.2 |
| 20260902053438 | 83 | 240 | 4.0 | 5.0 | 0.00 | 0.00 | 0.00 | 69 | 1016.2 |
| 20260902053104 | 83 | 227 | 4.0 | 5.0 | 0.00 | 0.00 | 0.00 | 69 | 1014.3 |
| 20260902052940 | 83 | 239 | 4.0 | 6.0 | 0.00 | 0.00 | 0.00 | 69 | 1016.2 |
| 20260902052430 | 83 | 239 | 4.0 | 7.0 | 0.00 | 0.00 | 0.00 | 68 | 1016.1 |
| 20260902051942 | 84 | 236 | 3.0 | 7.0 | 0.00 | 0.00 | 0.00 | 68 | 1016.0 |
| 20260902051549 | 83 | 215 | 4.0 | 7.0 | 0.00 | 0.00 | 0.00 | 68 | 1014.1 |
| 20260902051447 | 84 | 226 | 4.0 | 7.0 | 0.00 | 0.00 | 0.00 | 68 | 1016.0 |
| 20260902050929 | 84 | 221 | 4.0 | 6.0 | 0.00 | 0.00 | 0.00 | 68 | 1016.0 |
| 20260902050440 | 84 | 240 | 3.0 | 6.0 | 0.00 | 0.00 | 0.00 | 68 | 1015.9 |
| 20260902050056 | 83 | 219 | 3.0 | 6.0 | 0.00 | 0.00 | 0.00 | 67 | 1014.1 |
| 20260902045939 | 84 | 211 | 4.0 | 6.0 | 0.00 | 0.00 | 0.00 | 67 | 1015.9 |
| 20260902045429 | 84 | 223 | 4.0 | 7.0 | 0.00 | 0.00 | 0.00 | 67 | 1016.0 |
| 20260902044941 | 84 | 227 | 4.0 | 7.0 | 0.00 | 0.00 | 0.00 | 67 | 1016.0 |
| 20260902044600 | 84 | 212 | 3.0 | 6.0 | 0.00 | 0.00 | 0.00 | 67 | 1014.1 |
| 20260902044421 | 84 | 228 | 3.0 | 6.0 | 0.00 | 0.00 | 0.00 | 67 | 1016.0 |
| 20260902043932 | 84 | 230 | 4.0 | 8.0 | 0.00 | 0.00 | 0.00 | 66 | 1016.0 |
| 20260902043424 | 84 | 231 | 4.0 | 8.0 | 0.00 | 0.00 | 0.00 | 66 | 1016.0 |
| 20260902043053 | 84 | 231 | 3.0 | 6.0 | 0.00 | 0.00 | 0.00 | 66 | 1014.0 |
| 20260902042924 | 84 | 230 | 4.0 | 6.0 | 0.00 | 0.00 | 0.00 | 66 | 1015.9 |
| 20260902042455 | 84 | 216 | 4.0 | 6.0 | 0.00 | 0.00 | 0.00 | 66 | 1015.9 |
| 20260902041925 | 84 | 233 | 4.0 | 6.0 | 0.00 | 0.00 | 0.00 | 65 | 1015.9 |
| 20260902041539 | 84 | 231 | 3.0 | 6.0 | 0.00 | 0.00 | 0.00 | 65 | 1014.1 |
| 20260902041434 | 85 | 224 | 3.0 | 6.0 | 0.00 | 0.00 | 0.00 | 65 | 1015.9 |
| 20260902040944 | 85 | 232 | 4.0 | 5.0 | 0.00 | 0.00 | 0.00 | 65 | 1016.0 |
| 20260902040426 | 85 | 237 | 3.0 | 5.0 | 0.00 | 0.00 | 0.00 | 64 | 1016.0 |
| 20260902040018 | 84 | 214 | 3.0 | 6.0 | 0.00 | 0.00 | 0.00 | 64 | 1014.1 |
| 20260902035952 | 85 | 223 | 4.0 | 6.0 | 0.00 | 0.00 | 0.00 | 64 | 1016.0 |
| 20260902035423 | 85 | 233 | 3.0 | 6.0 | 0.00 | 0.00 | 0.00 | 64 | 1016.1 |
| 20260902034926 | 85 | 219 | 3.0 | 6.0 | 0.00 | 0.00 | 0.00 | 63 | 1016.0 |
| 20260902034504 | 85 | 217 | 2.0 | 6.0 | 0.00 | 0.00 | 0.00 | 63 | 1014.1 |
| 20260902034435 | 85 | 202 | 3.0 | 6.0 | 0.00 | 0.00 | 0.00 | 63 | 1016.0 |
| 20260902033927 | 85 | 268 | 3.0 | 6.0 | 0.00 | 0.00 | 0.00 | 62 | 1015.9 |